Location: Aiyekoto
(8.4333°N, 4.3667°E)
Time: 22:24:03
(UTC+00:00)

Centaur D-1A AC-31 - Pass Details

Date: 04 October 2020
Orbit: 553 x 36388 km, 27.2° (Epoch: 24 October)

Event Time Altitude Azimuth Distance (km) Brightness Sun altitude
Rises 08:03:50 0° 227° (SW) 6,998 6.1 36.7°
Reaches altitude 10° 08:06:42 10° 223° (SW) 6,866 6.2 37.4°
Maximum altitude 11:26:50 80° 28° (NNE) 33,319 11.4 76.9°
Enters shadow 18:19:48 14° 90° (E) 5,228 5.1 -12.7°
